Weather History for KLNL - April, 2014

Change the Weather History Date:

Saturday, April 5, 2014

  Actual Average (KEGV) Record (KEGV)
Temperature  
Mean Temperature 21 °F -  
Max Temperature 45 °F 50 °F 69 °F (2005)
Min Temperature -3 °F 25 °F 3 °F (2014)
Degree Days  
Heating Degree Days 44    
Moisture  
Dew Point 15 °F    
Average Humidity 64    
Maximum Humidity 95    
Minimum Humidity 35    
Precipitation  
Precipitation 0.35 in - - ()
Sea Level Pressure  
Sea Level Pressure 30.00 in    
Wind  
Wind Speed 3 mph (SW)    
Max Wind Speed 12 mph    
Max Gust Speed 17 mph    
Visibility 10 miles    
Events      
Averages and records for this station are not official NWS values.
T = Trace of Precipitation, MM = Missing Value Source: NWS Daily Summary

Daily Weather History Graph

Daily Weather History Graph

Search for Another Location

Airport or City:

Trip Planner

Search our weather history database for the weather conditions in past years. The results will help you decide how hot, cold, wet, or windy it might be!

Date:

Astronomy

Apr. 05, 2014 Rise Set
Actual Time 6:28 AM CDT 7:30 PM CDT
Civil Twilight 5:58 AM CDT 8:01 PM CDT
Nautical Twilight 5:21 AM CDT 8:38 PM CDT
Astronomical Twilight 4:43 AM CDT 9:17 PM CDT
Moon 10:24 AM CDT (4/5) 12:52 AM CDT (4/5)
Length of Visible Light 14h 03m
Length of Day
13h 01m
Waxing Crescent, 34% of the Moon is Illuminated
Apr 5
Waxing Crescent
Apr 7
First Quarter
Apr 15
Full
Apr 22
Last Quarter
Apr 29
New

Hourly Weather History & Observations

Time (CDT) Temp. Windchill Dew Point Humidity Pressure Visibility Wind Dir Wind Speed Gust Speed Precip Events Conditions
12:15 AM 22.3 °F 16.1 °F 19.2 °F 88% 29.91 in 10.0 mi NW 4.6 mph - N/A   Clear
12:35 AM 21.7 °F 17.0 °F 19.0 °F 89% 29.91 in 10.0 mi NW 3.5 mph - N/A   Clear
12:55 AM 18.1 °F - 15.3 °F 88% 29.92 in 10.0 mi Calm Calm - N/A   Clear
1:15 AM 14.4 °F - 12.2 °F 91% 29.92 in 10.0 mi Calm Calm - N/A   Clear
1:35 AM 12.9 °F - 10.9 °F 92% 29.93 in 10.0 mi Calm Calm - N/A   Clear
1:55 AM 10.0 °F - 7.2 °F 88% 29.94 in 10.0 mi Calm Calm - N/A   Clear
2:15 AM 9.5 °F - 6.3 °F 87% 29.94 in 5.0 mi Calm Calm - N/A   Clear
2:35 AM 8.1 °F - 5.4 °F 89% 29.94 in 10.0 mi Calm Calm - N/A   Clear
2:55 AM 6.8 °F - 3.7 °F 87% 29.95 in 10.0 mi Calm Calm - N/A   Clear
3:15 AM 4.8 °F - 1.2 °F 85% 29.96 in 10.0 mi Calm Calm - N/A   Clear
3:35 AM 4.3 °F - 0.5 °F 84% 29.97 in 10.0 mi Calm Calm - N/A   Clear
3:55 AM 2.8 °F - -0.8 °F 85% 29.97 in 10.0 mi Calm Calm - N/A   Clear
4:15 AM 1.8 °F - -2.2 °F 83% 29.98 in 10.0 mi Calm Calm - N/A   Clear
4:35 AM 1.2 °F - -2.6 °F 84% 29.98 in 10.0 mi Calm Calm - N/A   Clear
4:55 AM 0.7 °F - -3.3 °F 83% 29.99 in 10.0 mi Calm Calm - N/A   Clear
5:15 AM -0.4 °F - -4.2 °F 84% 29.99 in 10.0 mi Calm Calm - N/A   Clear
5:35 AM -0.8 °F - -4.5 °F 84% 29.99 in 10.0 mi Calm Calm - N/A   Clear
5:55 AM -1.7 °F - -5.8 °F 83% 30.00 in 10.0 mi Calm Calm - N/A   Clear
6:15 AM -2.2 °F - -6.2 °F 83% 30.01 in 10.0 mi Calm Calm - N/A   Clear
6:35 AM -3.5 °F - -7.4 °F 83% 30.01 in 10.0 mi Calm Calm - N/A   Clear
6:55 AM -2.9 °F - -7.4 °F 81% 30.03 in 10.0 mi Calm Calm - N/A   Clear
7:15 AM -0.4 °F - -4.0 °F 85% 30.03 in 10.0 mi Calm Calm - N/A   Clear
7:35 AM 3.4 °F - 0.3 °F 87% 30.04 in 10.0 mi Calm Calm - N/A   Clear
7:55 AM 7.5 °F - 4.8 °F 89% 30.04 in 10.0 mi Calm Calm - N/A   Clear
8:15 AM 12.6 °F - 10.2 °F 90% 30.04 in 10.0 mi Calm Calm - N/A   Clear
8:35 AM 16.7 °F - 14.7 °F 92% 30.05 in 10.0 mi Calm Calm - N/A   Clear
8:55 AM 22.3 °F - 21.0 °F 95% 30.05 in 10.0 mi Calm Calm - N/A   Clear
9:15 AM 25.0 °F - 22.8 °F 91% 30.05 in 10.0 mi Calm Calm - N/A   Clear
9:35 AM 28.9 °F 23.9 °F 21.9 °F 75% 30.05 in 10.0 mi SW 4.6 mph - 0.01 in   Clear
9:55 AM 32.0 °F 28.7 °F 22.3 °F 67% 30.05 in 10.0 mi SW 3.5 mph - 0.04 in   Clear
10:15 AM 34.0 °F 31.0 °F 22.1 °F 62% 30.05 in 10.0 mi SW 3.5 mph - 0.02 in   Clear
10:35 AM 36.0 °F 30.3 °F 20.8 °F 54% 30.05 in 10.0 mi SW 6.9 mph - 0.03 in   Clear
10:55 AM 37.4 °F 32.1 °F 18.5 °F 46% 30.05 in 10.0 mi WSW 6.9 mph - 0.03 in   Clear
11:15 AM 38.1 °F 32.9 °F 17.2 °F 43% 30.05 in 10.0 mi West 6.9 mph - 0.01 in   Clear
11:35 AM 39.2 °F 34.2 °F 19.2 °F 45% 30.05 in 10.0 mi WSW 6.9 mph - 0.09 in   Clear
11:55 AM 39.6 °F 34.0 °F 19.6 °F 45% 30.04 in 10.0 mi SW 8.1 mph - 0.24 in   Clear
12:15 PM 40.1 °F 35.3 °F 20.1 °F 45% 30.04 in 10.0 mi West 6.9 mph - 0.04 in   Clear
12:35 PM 41.0 °F 35.8 °F 21.4 °F 46% 30.03 in 10.0 mi WSW 8.1 mph - 0.04 in   Clear
12:55 PM 41.2 °F 34.5 °F 20.8 °F 44% 30.04 in 10.0 mi WSW 11.5 mph 17.3 mph 0.04 in   Clear
1:15 PM 41.4 °F 36.2 °F 21.4 °F 45% 30.03 in 10.0 mi SW 8.1 mph - N/A   Clear
1:35 PM 41.9 °F 36.3 °F 21.9 °F 45% 30.03 in 10.0 mi West 9.2 mph - N/A   Clear
1:55 PM 42.6 °F 36.8 °F 22.5 °F 45% 30.02 in 10.0 mi SW 10.4 mph 16.1 mph N/A   Clear
2:15 PM 43.3 °F 38.6 °F 23.9 °F 46% 30.02 in 10.0 mi WSW 8.1 mph - N/A   Clear
2:35 PM 43.7 °F 39.1 °F 23.0 °F 44% 30.01 in 10.0 mi SW 8.1 mph - N/A   Clear
2:55 PM 44.6 °F 39.7 °F 22.5 °F 42% 30.01 in 10.0 mi WSW 9.2 mph - N/A   Clear
3:15 PM 44.6 °F 39.7 °F 21.9 °F 41% 30.01 in 10.0 mi SW 9.2 mph - N/A   Clear
3:35 PM 44.8 °F 39.9 °F 20.8 °F 39% 30.01 in 10.0 mi West 9.2 mph - N/A   Clear
3:55 PM 44.8 °F 40.4 °F 20.7 °F 38% 30.00 in 10.0 mi SW 8.1 mph - N/A   Clear
4:15 PM 45.3 °F 40.6 °F 19.8 °F 36% 29.99 in 10.0 mi SW 9.2 mph - N/A   Clear
4:35 PM 45.5 °F 42.5 °F 19.2 °F 35% 29.99 in 10.0 mi WSW 5.8 mph - N/A   Clear
4:55 PM 45.5 °F 40.8 °F 20.8 °F 38% 29.99 in 10.0 mi South 9.2 mph - N/A   Clear
5:15 PM 45.5 °F 41.8 °F 21.0 °F 38% 29.99 in 10.0 mi SW 6.9 mph - N/A   Unknown
5:35 PM 45.3 °F 40.6 °F 20.3 °F 37% 29.99 in 10.0 mi SSW 9.2 mph - N/A   Unknown
5:55 PM 44.8 °F 39.4 °F 21.2 °F 39% 29.98 in 10.0 mi SW 10.4 mph 16.1 mph N/A   Clear
6:15 PM 44.4 °F 39.5 °F 20.8 °F 39% 29.98 in 10.0 mi SW 9.2 mph - N/A   Clear
6:35 PM 43.7 °F 39.1 °F 20.1 °F 39% 29.98 in 10.0 mi SW 8.1 mph - N/A   Clear
6:55 PM 43.0 °F 38.8 °F 19.6 °F 39% 29.98 in 10.0 mi SSW 6.9 mph - N/A   Clear
7:15 PM 41.7 °F 39.8 °F 19.4 °F 41% 29.98 in 10.0 mi SW 3.5 mph - N/A   Clear
7:35 PM 39.9 °F 37.8 °F 19.9 °F 45% 29.98 in 10.0 mi SW 3.5 mph - N/A   Clear
7:55 PM 39.2 °F 35.9 °F 21.9 °F 50% 29.98 in 10.0 mi SSW 4.6 mph - N/A   Clear
8:15 PM 38.3 °F 34.8 °F 23.0 °F 54% 29.99 in 10.0 mi SSW 4.6 mph - N/A   Clear
8:35 PM 38.1 °F 34.6 °F 23.0 °F 55% 29.99 in 10.0 mi SSW 4.6 mph - N/A   Clear
8:55 PM 37.2 °F 34.7 °F 22.8 °F 56% 29.99 in 10.0 mi SSW 3.5 mph - N/A   Clear
9:15 PM 36.9 °F 32.2 °F 22.8 °F 57% 29.99 in 10.0 mi SSW 5.8 mph - N/A   Clear
9:35 PM 36.1 °F 32.3 °F 22.5 °F 58% 29.99 in 10.0 mi SSW 4.6 mph - N/A   Clear
9:55 PM 35.6 °F 30.7 °F 22.5 °F 59% 29.99 in 10.0 mi SSW 5.8 mph - N/A   Clear
10:15 PM 34.9 °F 30.8 °F 22.5 °F 61% 29.99 in 10.0 mi SSW 4.6 mph - N/A   Clear
10:35 PM 34.0 °F 29.8 °F 22.6 °F 63% 29.99 in 10.0 mi SSW 4.6 mph - N/A   Clear
11:15 PM 32.4 °F 29.1 °F 23.0 °F 68% 29.99 in 10.0 mi SSW 3.5 mph - N/A   Clear
11:35 PM 32.0 °F 28.7 °F 23.0 °F 69% 29.99 in 10.0 mi SSW 3.5 mph - N/A   Clear
11:55 PM 31.8 °F 28.5 °F 23.0 °F 70% 29.99 in 10.0 mi SSW 3.5 mph - N/A   Clear